Location: Владивосток
(43.1151°N, 131.8856°E)
Time: 13:32:31
(UTC+10:00)

Envisat - Visible Passes

Search period start: 05 October 2023 00:00
Search period end: 15 October 2023 00:00
Orbit: 763 x 764 km, 98.2° (Epoch: 04 October)

Date Brightness Start Highest point End Pass type
(mag) Time Alt. Az. Time Alt. Az. Time Alt. Az.
05 Oct 3.0 04:52:42 10° NNE 04:57:48 80° ESE 04:59:12 49° S visible
05 Oct 4.7 06:33:28 10° NNW 06:36:07 14° WNW 06:38:46 10° W visible
06 Oct 4.3 04:15:49 10° NNE 04:20:29 36° E 04:21:27 33° ESE visible
06 Oct 3.9 05:55:01 10° N 05:59:20 29° WNW 06:01:36 21° WSW visible
07 Oct 5.4 03:39:48 10° NE 03:42:57 16° E 03:43:40 16° E visible
07 Oct 2.9 05:17:20 10° N 05:22:21 62° WNW 05:23:49 43° SW visible
08 Oct 3.4 04:40:07 10° NNE 04:45:10 61° E 04:46:03 52° SE visible
08 Oct 4.4 06:20:16 10° NNW 06:23:39 18° WNW 06:26:12 13° W visible
09 Oct 4.7 04:03:27 10° NE 04:07:46 28° E 04:08:16 27° ESE visible
09 Oct 3.5 05:42:10 10° N 05:46:48 37° WNW 05:48:25 29° WSW visible
10 Oct 5.7 03:28:06 10° ENE 03:30:10 12° E 03:30:28 12° E visible
10 Oct 2.8 05:04:39 10° N 05:09:45 80° WNW 05:10:38 61° SW visible
10 Oct 4.8 06:46:26 10° NW 06:47:52 11° WNW 06:49:19 10° WNW visible
11 Oct 3.8 04:27:35 10° NNE 04:32:29 47° E 04:32:50 46° ESE visible
11 Oct 4.1 06:07:14 10° NNW 06:11:10 23° WNW 06:13:00 19° W visible
12 Oct 5.1 03:51:10 10° NE 03:55:02 21° E 03:55:03 21° E visible
12 Oct 3.2 05:29:22 10° N 05:34:14 47° WNW 05:35:12 42° WSW visible
13 Oct 2.9 04:52:01 10° NNE 04:57:07 80° ESE 04:57:25 76° SSE visible
13 Oct 4.7 06:32:47 10° NNW 06:35:25 14° WNW 06:37:34 11° W visible
14 Oct 4.3 04:15:07 10° NNE 04:19:37 36° E 04:19:37 36° E visible
14 Oct 3.8 05:54:19 10° N 05:58:38 29° WNW 05:59:46 26° W visible
